| time (UTC) | temp C | wind direction | speed KPH | gust KPH | rain 1hr cm | rain 24hr cm | rain mn cm | humidity % | barometer mb |
| 20260504050436 | 5 | 224 | 0.0 | 1.6 | 0.00 | 0.61 | 0.00 | 96 | 1000.6 |
| 20260504045935 | 5 | 261 | 0.0 | 0.0 | 0.00 | 0.61 | 0.00 | 96 | 1000.6 |
| 20260504045708 | 5 | 262 | 0.0 | 0.0 | 0.00 | 0.61 | 0.00 | 96 | 1000.7 |
| 20260504044935 | 5 | 276 | 0.0 | 0.0 | 0.00 | 0.61 | 0.00 | 96 | 1000.7 |
| 20260504044435 | 5 | 275 | 0.0 | 0.0 | 0.00 | 0.61 | 0.00 | 96 | 1000.8 |
| 20260504043934 | 5 | 276 | 0.0 | 0.0 | 0.00 | 0.61 | 0.00 | 96 | 1000.8 |
| 20260504043201 | 5 | 329 | 0.0 | 1.6 | 0.00 | 0.61 | 0.00 | 96 | 1000.9 |
| 20260504042434 | 5 | 19 | 0.0 | 6.4 | 0.00 | 0.61 | 0.00 | 96 | 1001.0 |
| 20260504041935 | 5 | 24 | 1.6 | 6.4 | 0.00 | 0.61 | 0.00 | 96 | 1001.0 |
| 20260504041437 | 5 | 326 | 1.6 | 3.2 | 0.00 | 0.61 | 0.00 | 96 | 1000.9 |
| 20260504040933 | 5 | 252 | 0.0 | 0.0 | 0.00 | 0.61 | 0.00 | 96 | 1000.8 |
| 20260504040433 | 5 | 252 | 0.0 | 0.0 | 0.00 | 0.61 | 0.00 | 96 | 1000.9 |
| 20260504040208 | 5 | 290 | 0.0 | 1.6 | 0.00 | 0.61 | 0.61 | 96 | 1001.0 |
| 20260504035434 | 5 | 305 | 0.0 | 1.6 | 0.00 | 0.61 | 0.61 | 96 | 1001.1 |
| 20260504034935 | 6 | 28 | 0.0 | 0.0 | 0.00 | 0.61 | 0.61 | 96 | 1001.2 |
| 20260504034433 | 6 | 341 | 0.0 | 0.0 | 0.00 | 0.61 | 0.61 | 96 | 1001.2 |
| 20260504033933 | 6 | 272 | 0.0 | 3.2 | 0.00 | 0.61 | 0.61 | 96 | 1001.1 |
| 20260504033659 | 6 | 271 | 0.0 | 4.8 | 0.00 | 0.61 | 0.61 | 96 | 1001.2 |
| 20260504032931 | 6 | 275 | 1.6 | 4.8 | 0.00 | 0.61 | 0.61 | 96 | 1001.2 |
| 20260504032432 | 6 | 268 | 0.0 | 3.2 | 0.00 | 0.61 | 0.61 | 96 | 1001.4 |
| 20260504031934 | 6 | 245 | 0.0 | 1.6 | 0.00 | 0.61 | 0.61 | 96 | 1001.2 |
| 20260504031432 | 6 | 237 | 0.0 | 3.2 | 0.00 | 0.61 | 0.61 | 96 | 1001.2 |
| 20260504030932 | 6 | 237 | 1.6 | 3.2 | 0.00 | 0.61 | 0.61 | 96 | 1001.3 |
| 20260504030434 | 6 | 236 | 0.0 | 3.2 | 0.00 | 0.61 | 0.61 | 96 | 1001.3 |
| 20260504025932 | 6 | 149 | 0.0 | 4.8 | 0.00 | 0.61 | 0.61 | 96 | 1001.2 |
| 20260504025432 | 6 | 154 | 1.6 | 4.8 | 0.00 | 0.61 | 0.61 | 96 | 1001.2 |
| 20260504025212 | 6 | 151 | 1.6 | 4.8 | 0.00 | 0.61 | 0.61 | 96 | 1001.3 |
| 20260504024431 | 6 | 165 | 1.6 | 4.8 | 0.00 | 0.61 | 0.61 | 96 | 1001.3 |
| 20260504023931 | 6 | 173 | 3.2 | 4.8 | 0.00 | 0.61 | 0.61 | 96 | 1001.3 |
| 20260504023431 | 6 | 161 | 1.6 | 4.8 | 0.00 | 0.61 | 0.61 | 96 | 1001.3 |
| 20260504022931 | 6 | 145 | 3.2 | 4.8 | 0.00 | 0.61 | 0.61 | 96 | 1001.3 |
| 20260504022659 | 5 | 175 | 0.0 | 1.6 | 0.00 | 0.61 | 0.61 | 96 | 1001.4 |
| 20260504022215 | 5 | 190 | 0.0 | 3.2 | 0.00 | 0.61 | 0.61 | 96 | 1001.4 |
| 20260504021431 | 5 | 190 | 0.0 | 3.2 | 0.00 | 0.61 | 0.61 | 96 | 1001.4 |
| 20260504020931 | 5 | 166 | 0.0 | 4.8 | 0.00 | 0.61 | 0.61 | 95 | 1001.4 |
| 20260504020430 | 5 | 142 | 1.6 | 4.8 | 0.00 | 0.61 | 0.61 | 95 | 1001.4 |
| 20260504015428 | 5 | 183 | 1.6 | 4.8 | 0.00 | 0.61 | 0.61 | 95 | 1001.5 |
| 20260504014926 | 5 | 86 | 0.0 | 4.8 | 0.00 | 0.61 | 0.61 | 95 | 1001.6 |
| 20260504014651 | 5 | 80 | 1.6 | 4.8 | 0.00 | 0.61 | 0.61 | 95 | 1001.7 |
| 20260504013926 | 6 | 89 | 3.2 | 4.8 | 0.00 | 0.61 | 0.61 | 95 | 1001.8 |
| 20260504013423 | 6 | 61 | 3.2 | 3.2 | 0.03 | 0.61 | 0.61 | 95 | 1001.7 |
| 20260504013151 | 6 | 104 | 1.6 | 6.4 | 0.03 | 0.61 | 0.61 | 95 | 1001.5 |
| 20260504012649 | 5 | 172 | 3.2 | 6.4 | 0.08 | 0.61 | 0.61 | 95 | 1001.4 |
| 20260504011923 | 5 | 186 | 3.2 | 8.0 | 0.13 | 0.61 | 0.61 | 95 | 1001.5 |
| 20260504011421 | 5 | 186 | 4.8 | 8.0 | 0.15 | 0.61 | 0.61 | 95 | 1001.5 |
| 20260504010921 | 5 | 151 | 3.2 | 4.8 | 0.23 | 0.61 | 0.61 | 95 | 1001.5 |
| 20260504010645 | 5 | 155 | 1.6 | 4.8 | 0.25 | 0.61 | 0.61 | 94 | 1001.7 |
| 20260504005919 | 5 | 162 | 1.6 | 4.8 | 0.28 | 0.33 | 0.61 | 94 | 1001.8 |
| 20260504005653 | 5 | 158 | 1.6 | 6.4 | 0.33 | 0.33 | 0.61 | 94 | 1001.7 |
| 20260504004929 | 5 | 83 | 3.2 | 6.4 | 0.41 | 0.33 | 0.61 | 94 | 1001.7 |
| 20260504004416 | 5 | 124 | 3.2 | 4.8 | 0.48 | 0.33 | 0.61 | 94 | 1001.8 |
| 20260504003910 | 5 | 182 | 1.6 | 4.8 | 0.58 | 0.33 | 0.61 | 93 | 1001.8 |
| 20260504003410 | 5 | 155 | 1.6 | 3.2 | 0.56 | 0.33 | 0.58 | 93 | 1002.1 |
| 20260504002908 | 5 | 178 | 1.6 | 3.2 | 0.56 | 0.33 | 0.56 | 93 | 1002.1 |
| 20260504002406 | 5 | 138 | 0.0 | 6.4 | 0.51 | 0.33 | 0.53 | 92 | 1002.3 |
| 20260504001920 | 5 | 310 | 3.2 | 6.4 | 0.46 | 0.33 | 0.48 | 91 | 1002.5 |
| 20260504001408 | 5 | 281 | 3.2 | 9.7 | 0.41 | 0.33 | 0.43 | 91 | 1002.4 |
| 20260504000904 | 5 | 334 | 3.2 | 17.7 | 0.36 | 0.33 | 0.38 | 90 | 1002.6 |
| 20260504000404 | 6 | 25 | 3.2 | 17.7 | 0.33 | 0.33 | 0.33 | 88 | 1002.6 |
| 20260503235904 | 6 | 25 | 4.8 | 19.3 | 0.30 | 0.03 | 0.30 | 87 | 1002.5 |
| 20260503235404 | 7 | 323 | 3.2 | 25.7 | 0.25 | 0.03 | 0.25 | 87 | 1002.3 |
| 20260503234913 | 8 | 2 | 8.0 | 25.7 | 0.18 | 0.03 | 0.20 | 85 | 1002.2 |
| 20260503234358 | 9 | 289 | 14.5 | 22.5 | 0.08 | 0.03 | 0.08 | 80 | 1002.1 |
| 20260503233858 | 11 | 344 | 6.4 | 22.5 | 0.00 | 0.03 | 0.03 | 71 | 1001.8 |
| 20260503233621 | 14 | 11 | 11.3 | 22.5 | 0.00 | 0.03 | 0.03 | 64 | 1001.1 |
| 20260503232352 | 15 | 259 | 6.4 | 19.3 | 0.00 | 0.03 | 0.03 | 62 | 1000.3 |
| 20260503231856 | 15 | 271 | 4.8 | 19.3 | 0.00 | 0.03 | 0.03 | 62 | 1000.3 |
| 20260503231351 | 15 | 250 | 8.0 | 11.3 | 0.00 | 0.03 | 0.03 | 62 | 1000.1 |
| 20260503230852 | 15 | 274 | 4.8 | 14.5 | 0.00 | 0.03 | 0.03 | 62 | 1000.2 |
| 20260503230352 | 15 | 250 | 6.4 | 14.5 | 0.00 | 0.03 | 0.03 | 62 | 1000.2 |
| 20260503225852 | 15 | 238 | 6.4 | 11.3 | 0.00 | 0.03 | 0.03 | 62 | 1000.2 |
| 20260503225352 | 15 | 240 | 1.6 | 14.5 | 0.00 | 0.03 | 0.03 | 63 | 1000.3 |
| 20260503224847 | 15 | 245 | 8.0 | 19.3 | 0.00 | 0.03 | 0.03 | 62 | 1000.5 |
| 20260503224347 | 15 | 262 | 9.7 | 20.9 | 0.00 | 0.03 | 0.03 | 63 | 1000.6 |
| 20260503223847 | 15 | 213 | 9.7 | 20.9 | 0.00 | 0.03 | 0.03 | 62 | 1000.6 |
| 20260503223347 | 15 | 281 | 8.0 | 19.3 | 0.00 | 0.03 | 0.03 | 63 | 1000.6 |
| 20260503222846 | 15 | 262 | 9.7 | 20.9 | 0.00 | 0.03 | 0.03 | 62 | 1000.7 |
| 20260503222616 | 15 | 288 | 11.3 | 27.4 | 0.00 | 0.03 | 0.03 | 63 | 1000.8 |
| 20260503222117 | 15 | 268 | 17.7 | 27.4 | 0.00 | 0.03 | 0.03 | 62 | 1000.8 |
| 20260503221345 | 15 | 245 | 14.5 | 20.9 | 0.00 | 0.03 | 0.03 | 63 | 1000.9 |
| 20260503220839 | 15 | 237 | 9.7 | 25.7 | 0.00 | 0.03 | 0.03 | 63 | 1000.9 |
| 20260503220337 | 15 | 226 | 14.5 | 30.6 | 0.00 | 0.03 | 0.03 | 64 | 1000.9 |
| 20260503215833 | 14 | 238 | 16.1 | 30.6 | 0.00 | 0.03 | 0.03 | 64 | 1001.0 |
| 20260503215332 | 14 | 227 | 14.5 | 27.4 | 0.00 | 0.03 | 0.03 | 63 | 1001.0 |
| 20260503215101 | 14 | 261 | 14.5 | 29.0 | 0.00 | 0.03 | 0.03 | 63 | 1001.1 |
| 20260503214332 | 15 | 264 | 17.7 | 29.0 | 0.00 | 0.03 | 0.03 | 62 | 1001.1 |
| 20260503213834 | 15 | 231 | 17.7 | 29.0 | 0.00 | 0.03 | 0.03 | 64 | 1001.1 |
| 20260503213325 | 14 | 220 | 12.9 | 27.4 | 0.00 | 0.03 | 0.03 | 64 | 1001.0 |
| 20260503212823 | 14 | 219 | 9.7 | 29.0 | 0.00 | 0.03 | 0.03 | 63 | 1001.1 |
| 20260503212332 | 14 | 251 | 17.7 | 29.0 | 0.00 | 0.03 | 0.03 | 64 | 1001.3 |
| 20260503210824 | 8 | 340 | 0.0 | 11.3 | 0.00 | 0.03 | 0.03 | 84 | 1001.3 |
| 20260503210323 | 7 | 62 | 4.8 | 9.7 | 0.00 | 0.03 | 0.03 | 88 | 1001.4 |
| 20260503205821 | 7 | 121 | 6.4 | 14.5 | 0.00 | 0.03 | 0.03 | 87 | 1001.5 |
| 20260503205550 | 6 | 95 | 3.2 | 14.5 | 0.00 | 0.03 | 0.03 | 87 | 1001.8 |
| 20260503204821 | 6 | 79 | 6.4 | 16.1 | 0.00 | 0.03 | 0.03 | 86 | 1001.8 |
| 20260503204323 | 6 | 90 | 9.7 | 16.1 | 0.00 | 0.03 | 0.03 | 86 | 1001.8 |
| 20260503203822 | 6 | 75 | 8.0 | 20.9 | 0.00 | 0.03 | 0.03 | 85 | 1001.8 |
| 20260503203320 | 6 | 106 | 6.4 | 20.9 | 0.00 | 0.03 | 0.03 | 85 | 1001.8 |
| 20260503202821 | 6 | 65 | 9.7 | 17.7 | 0.00 | 0.03 | 0.03 | 85 | 1001.9 |
| 20260503202545 | 6 | 110 | 8.0 | 17.7 | 0.00 | 0.03 | 0.03 | 85 | 1002.1 |
| 20260503202048 | 6 | 87 | 8.0 | 16.1 | 0.00 | 0.03 | 0.03 | 83 | 1002.0 |
| 20260503201547 | 7 | 87 | 9.7 | 16.1 | 0.00 | 0.03 | 0.03 | 83 | 1002.1 |
| 20260503200820 | 7 | 80 | 9.7 | 16.1 | 0.00 | 0.03 | 0.03 | 81 | 1002.1 |
| 20260503200320 | 8 | 73 | 6.4 | 14.5 | 0.00 | 0.03 | 0.03 | 80 | 1002.2 |
| 20260503195819 | 8 | 82 | 6.4 | 14.5 | 0.00 | 0.03 | 0.03 | 82 | 1002.3 |
| 20260503195320 | 8 | 97 | 8.0 | 14.5 | 0.00 | 0.03 | 0.03 | 83 | 1002.4 |
| 20260503195050 | 8 | 56 | 6.4 | 9.7 | 0.00 | 0.03 | 0.03 | 83 | 1002.5 |
| 20260503194322 | 8 | 75 | 3.2 | 9.7 | 0.00 | 0.03 | 0.03 | 85 | 1002.6 |
| 20260503193820 | 8 | 95 | 1.6 | 14.5 | 0.00 | 0.03 | 0.03 | 85 | 1002.5 |
| 20260503193550 | 8 | 76 | 8.0 | 16.1 | 0.00 | 0.03 | 0.03 | 86 | 1002.7 |
| 20260503193044 | 7 | 100 | 9.7 | 16.1 | 0.00 | 0.03 | 0.03 | 85 | 1002.8 |
| 20260503192324 | 7 | 89 | 9.7 | 16.1 | 0.00 | 0.03 | 0.03 | 84 | 1003.0 |
| 20260503191820 | 8 | 85 | 8.0 | 14.5 | 0.00 | 0.03 | 0.03 | 86 | 1003.1 |
| 20260503191320 | 7 | 44 | 6.4 | 17.7 | 0.00 | 0.03 | 0.03 | 85 | 1003.1 |
| 20260503190815 | 7 | 109 | 6.4 | 17.7 | 0.00 | 0.03 | 0.03 | 84 | 1003.1 |
| 20260503190317 | 7 | 96 | 9.7 | 14.5 | 0.00 | 0.03 | 0.03 | 83 | 1003.3 |
| 20260503185809 | 7 | 41 | 8.0 | 11.3 | 0.00 | 0.03 | 0.03 | 82 | 1003.3 |
| 20260503185320 | 8 | 103 | 9.7 | 16.1 | 0.00 | 0.03 | 0.03 | 80 | 1003.3 |
| 20260503184805 | 8 | 137 | 6.4 | 16.1 | 0.00 | 0.03 | 0.03 | 80 | 1003.3 |
| 20260503184759 | 8 | 93 | 8.0 | 14.5 | 0.00 | 0.03 | 0.03 | 80 | 1003.3 |
| 20260503183805 | 9 | 80 | 6.4 | 11.3 | 0.00 | 0.03 | 0.03 | 82 | 1003.3 |
| 20260503183528 | 9 | 106 | 8.0 | 11.3 | 0.00 | 0.03 | 0.03 | 81 | 1003.4 |
| 20260503183030 | 10 | 95 | 4.8 | 11.3 | 0.00 | 0.03 | 0.03 | 83 | 1003.5 |
| 20260503182306 | 10 | 141 | 6.4 | 11.3 | 0.00 | 0.03 | 0.03 | 84 | 1003.7 |
| 20260503181308 | 8 | 138 | 6.4 | 9.7 | 0.00 | 0.03 | 0.03 | 87 | 1003.9 |
| 20260503180804 | 8 | 188 | 4.8 | 9.7 | 0.00 | 0.03 | 0.03 | 87 | 1004.0 |
| 20260503180332 | 7 | 137 | 1.6 | 6.4 | 0.00 | 0.03 | 0.03 | 89 | 1004.2 |
| 20260503175804 | 7 | 147 | 3.2 | 6.4 | 0.00 | 0.03 | 0.03 | 87 | 1004.2 |
| 20260503175306 | 7 | 142 | 3.2 | 9.7 | 0.00 | 0.03 | 0.03 | 88 | 1004.4 |
| 20260503174919 | 6 | 147 | 4.8 | 9.7 | 0.00 | 0.03 | 0.03 | 89 | 1004.4 |
| 20260503174304 | 6 | 144 | 6.4 | 9.7 | 0.00 | 0.03 | 0.03 | 90 | 1004.4 |
| 20260503174030 | 6 | 135 | 3.2 | 8.0 | 0.00 | 0.03 | 0.03 | 91 | 1004.4 |
| 20260503173303 | 6 | 100 | 4.8 | 6.4 | 0.00 | 0.03 | 0.03 | 91 | 1004.5 |
| 20260503173036 | 5 | 89 | 3.2 | 6.4 | 0.00 | 0.03 | 0.03 | 91 | 1004.5 |
| 20260503172305 | 5 | 121 | 4.8 | 6.4 | 0.00 | 0.03 | 0.03 | 90 | 1004.6 |
| 20260503171805 | 5 | 99 | 1.6 | 4.8 | 0.00 | 0.03 | 0.03 | 90 | 1004.8 |
| 20260503171303 | 5 | 96 | 0.0 | 6.4 | 0.03 | 0.03 | 0.03 | 90 | 1004.8 |
| 20260503171025 | 5 | 128 | 3.2 | 6.4 | 0.03 | 0.03 | 0.03 | 90 | 1004.9 |
| 20260503170301 | 4 | 31 | 0.0 | 6.4 | 0.03 | 0.03 | 0.03 | 89 | 1005.0 |
| 20260503150741 | 5 | 161 | 1.6 | 8.0 | 0.00 | 0.00 | 0.00 | 80 | 1005.5 |
| 20260503150514 | 6 | 102 | 4.8 | 8.0 | 0.00 | 0.00 | 0.00 | 80 | 1005.4 |
| 20260503140214 | 6 | 188 | 1.6 | 6.4 | 0.00 | 0.00 | 0.00 | 71 | 1006.0 |
| 20260503131030 | 6 | 275 | 4.8 | 11.3 | 0.00 | 0.00 | 0.00 | 61 | 1006.6 |
| 20260503130528 | 6 | 243 | 6.4 | 14.5 | 0.00 | 0.00 | 0.00 | 61 | 1006.7 |
| 20260503110510 | 3 | 203 | 4.8 | 11.3 | 0.00 | 0.00 | 0.00 | 61 | 1007.1 |
| 20260503090511 | 1 | 231 | 8.0 | 11.3 | 0.00 | 0.00 | 0.00 | 64 | 1008.1 |
| 20260503081502 | 1 | 227 | 9.7 | 14.5 | 0.00 | 0.00 | 0.00 | 64 | 1008.8 |
| 20260503080959 | 1 | 228 | 8.0 | 14.5 | 0.00 | 0.00 | 0.00 | 64 | 1008.9 |
| 20260503080459 | 1 | 238 | 8.0 | 14.5 | 0.00 | 0.00 | 0.00 | 64 | 1009.0 |